Date String (YYYY-MM-DD hh:mm:ss) UTC,Instrument flags,Ambient pressure (hPa),Sample flow (lpm),Bypass flow (lpm),Sample temperature (°C),Ambient temperature (°C),ASC tube jacket temperature (°C),LED temperature (°C),Box temperature (°C),Sample RH (%),Span deviation,Mass concentration (μg/m³),Mass concentration (μg/m³),Mass concentration (μg/m³)
DateTimeUTC,F1_M11,P_M11,Q1_M11,Q2_M11,T1_M11,T2_M11,T3_M11,T4_M11,T5_M11,U1_M11,ZSPAN_M11,X0_M11,X2_M11,X1_M11
2022-08-10 11:00:00,,0833.5,5.00,0.00,29.6,27.8,00.0,38.5,31.4,27.4,0000.0,0010.80,0005.85,0004.98
2022-08-10 11:01:00,,0833.6,5.00,0.00,29.6,27.9,00.0,38.5,31.5,27.2,0000.0,0011.28,0005.90,0005.03
2022-08-10 11:02:00,,0833.5,4.99,0.00,29.6,28.1,00.0,38.5,31.5,27.2,0000.0,0011.72,0005.96,0005.08
2022-08-10 11:03:00,,0833.5,5.00,0.00,29.6,28.2,00.0,38.5,31.5,27.2,0000.0,0011.76,0005.97,0005.12
2022-08-10 11:04:00,,0833.6,5.00,0.00,29.7,28.3,00.0,38.5,31.5,27.3,0000.0,0011.90,0006.00,0005.15
2022-08-10 11:05:00,,0833.6,5.00,0.00,29.7,28.4,00.0,38.5,31.6,27.3,0000.0,0012.03,0006.04,0005.17
2022-08-10 11:06:00,,0833.6,5.00,0.00,29.7,28.4,00.0,38.5,31.6,27.2,0000.0,0011.88,0006.02,0005.19
2022-08-10 11:07:00,,0833.6,5.00,0.00,29.7,28.5,00.0,38.5,31.6,27.2,0000.0,0011.62,0006.00,0005.21
2022-08-10 11:08:00,,0833.6,5.01,0.00,29.7,28.6,00.0,38.5,31.7,27.2,0000.0,0011.50,0006.06,0005.22
2022-08-10 11:09:00,,0833.6,5.01,0.00,29.7,28.6,00.0,38.5,31.7,27.1,0000.0,0011.82,0006.14,0005.24
2022-08-10 11:10:00,,0833.7,5.00,0.00,29.8,28.7,00.0,38.6,31.7,27.0,0000.0,0012.20,0006.20,0005.24
2022-08-10 11:11:00,,0833.6,5.00,0.00,29.8,28.7,00.0,38.6,31.8,27.9,0000.0,0012.19,0006.25,0005.24
2022-08-10 11:12:00,,0833.6,5.00,0.00,29.8,28.8,00.0,38.6,31.8,28.0,0000.0,0012.51,0006.27,0005.23
2022-08-10 11:13:00,,0833.6,5.00,0.00,29.8,28.8,00.0,38.6,31.8,28.1,0000.0,0013.22,0006.28,0005.23
2022-08-10 11:14:00,,0833.6,5.00,0.00,29.9,28.9,00.0,38.6,31.8,27.0,0000.0,0013.20,0006.29,0005.23
2022-08-10 11:15:00,,0833.6,5.00,0.00,29.9,28.9,00.0,38.6,31.8,26.7,0000.0,0012.95,0006.27,0005.24
2022-08-10 11:16:00,,0833.6,4.99,0.00,29.9,28.9,00.0,38.7,31.9,26.4,0000.0,0012.87,0006.25,0005.24
2022-08-10 11:17:00,,0833.6,5.00,0.00,29.9,29.0,00.0,38.7,31.9,26.3,0000.0,0013.58,0006.25,0005.21
2022-08-10 11:18:00,,0833.6,5.01,0.00,30.0,29.0,00.0,38.7,31.9,26.3,0000.0,0013.60,0006.28,0005.19
2022-08-10 11:19:00,,0833.6,5.00,0.00,30.0,28.4,00.0,38.7,31.8,26.2,0000.0,0013.59,0006.27,0005.18
2022-08-10 11:20:00,,0833.6,5.01,0.00,29.9,27.8,00.0,38.6,31.6,26.2,0000.0,0013.59,0006.28,0005.17
2022-08-10 11:21:00,,0833.6,4.99,0.00,29.8,27.5,00.0,38.6,31.5,26.3,0000.0,0013.92,0006.24,0005.14
2022-08-10 11:22:00,,0833.6,5.01,0.00,29.7,27.5,00.0,38.6,31.4,26.4,0000.0,0013.88,0006.17,0005.13
2022-08-10 11:23:00,,0833.6,5.01,0.00,29.7,27.6,00.0,38.6,31.4,26.4,0000.0,0013.52,0006.16,0005.12
2022-08-10 11:24:00,,0833.6,4.98,0.00,29.7,27.7,00.0,38.6,31.4,26.5,0000.0,0012.44,0006.08,0005.09
2022-08-10 11:25:00,,0833.6,4.99,0.00,29.7,27.9,00.0,38.5,31.5,26.4,0000.0,0012.88,0006.07,0005.08
2022-08-10 11:26:00,,0833.6,5.00,0.00,29.7,28.0,00.0,38.5,31.5,26.4,0000.0,0013.02,0006.07,0005.04
2022-08-10 11:27:00,,0833.6,5.01,0.00,29.7,28.1,00.0,38.5,31.5,26.5,0000.0,0013.65,0006.08,0005.02
2022-08-10 11:28:00,,0833.6,4.99,0.00,29.7,28.2,00.0,38.5,31.5,26.5,0000.0,0013.15,0006.07,0005.02
2022-08-10 11:29:00,,0833.6,5.00,0.00,29.7,28.3,00.0,38.5,31.6,26.5,0000.0,0012.85,0006.00,0005.01
2022-08-10 11:30:00,,0833.6,5.01,0.00,29.7,28.4,00.0,38.5,31.6,26.4,0000.0,0012.79,0005.97,0004.99
2022-08-10 11:31:00,,0833.7,5.00,0.00,29.7,28.5,00.0,38.5,31.6,26.4,0000.0,0012.72,0005.90,0004.95
2022-08-10 11:32:00,,0833.7,5.00,0.00,29.7,28.5,00.0,38.5,31.7,26.5,0000.0,0012.38,0005.87,0004.92
2022-08-10 11:33:00,,0833.7,5.00,0.00,29.7,28.6,00.0,38.6,31.7,26.4,0000.0,0012.38,0005.84,0004.89
2022-08-10 11:34:00,,0833.7,5.00,0.00,29.8,28.7,00.0,38.6,31.7,26.5,0000.0,0012.00,0005.76,0004.86
2022-08-10 11:35:00,,0833.7,5.00,0.00,29.8,28.7,00.0,38.6,31.8,26.4,0000.0,0011.74,0005.76,0004.85
2022-08-10 11:36:00,,0833.7,5.00,0.00,29.8,28.7,00.0,38.6,31.7,26.4,0000.0,0011.11,0005.72,0004.82
2022-08-10 11:37:00,,0833.7,5.00,0.00,29.8,28.8,00.0,38.6,31.7,26.3,0000.0,0011.06,0005.71,0004.81
2022-08-10 11:38:00,,0833.7,5.00,0.00,29.9,28.8,00.0,38.6,31.8,26.3,0000.0,0010.30,0005.67,0004.79
2022-08-10 11:39:00,,0833.7,4.99,0.00,29.9,28.9,00.0,38.6,31.8,26.3,0000.0,0010.07,0005.65,0004.76
2022-08-10 11:40:00,,0833.7,4.99,0.00,29.9,28.9,00.0,38.7,31.9,26.4,0000.0,0010.10,0005.66,0004.75
2022-08-10 11:41:00,,0833.7,5.01,0.00,29.9,28.9,00.0,38.7,31.9,26.2,0000.0,0010.16,0005.67,0004.75
2022-08-10 11:42:00,,0833.7,5.01,0.00,29.9,28.9,00.0,38.7,31.9,26.0,0000.0,0010.08,0005.67,0004.77
2022-08-10 11:43:00,,0833.7,5.00,0.00,30.0,29.0,00.0,38.7,31.9,26.0,0000.0,0009.74,0005.66,0004.79
2022-08-10 11:44:00,,0833.7,5.00,0.00,30.0,29.0,00.0,38.7,31.9,26.3,0000.0,0009.51,0005.67,0004.80
2022-08-10 11:45:00,,0833.7,4.99,0.00,30.0,28.9,00.0,38.7,31.9,26.1,0000.0,0009.55,0005.71,0004.81
2022-08-10 11:46:00,,0833.7,4.99,0.00,30.0,28.2,00.0,38.7,31.7,26.1,0000.0,0009.56,0005.72,0004.80
2022-08-10 11:47:00,,0833.7,5.00,0.00,29.9,27.7,00.0,38.7,31.6,26.1,0000.0,0009.58,0005.72,0004.80
2022-08-10 11:48:00,,0833.7,5.01,0.00,29.8,27.5,00.0,38.6,31.5,26.2,0000.0,0009.51,0005.67,0004.80
2022-08-10 11:49:00,,0833.7,5.00,0.00,29.7,27.6,00.0,38.6,31.4,26.2,0000.0,0009.43,0005.67,0004.80
2022-08-10 11:50:00,,0833.6,4.99,0.00,29.7,27.7,00.0,38.6,31.4,26.2,0000.0,0009.42,0005.68,0004.81
2022-08-10 11:51:00,,0833.6,5.00,0.00,29.7,27.8,00.0,38.6,31.4,26.4,0000.0,0009.44,0005.67,0004.81
2022-08-10 11:52:00,,0833.7,5.00,0.00,29.7,27.9,00.0,38.6,31.5,26.4,0000.0,0009.35,0005.62,0004.81
2022-08-10 11:53:00,,0833.7,5.00,0.00,29.7,28.0,00.0,38.5,31.5,26.5,0000.0,0009.92,0005.58,0004.80
2022-08-10 11:54:00,,0833.7,5.01,0.00,29.7,28.1,00.0,38.5,31.5,26.5,0000.0,0010.21,0005.58,0004.80
2022-08-10 11:55:00,,0833.7,5.00,0.00,29.7,28.2,00.0,38.5,31.5,26.5,0000.0,0010.35,0005.62,0004.82
2022-08-10 11:56:00,,0833.7,4.99,0.00,29.7,28.3,00.0,38.5,31.6,26.4,0000.0,0010.62,0005.65,0004.83
2022-08-10 11:57:00,,0833.7,5.00,0.00,29.7,28.4,00.0,38.5,31.6,26.4,0000.0,0011.12,0005.69,0004.86
2022-08-10 11:58:00,,0833.7,5.01,0.00,29.7,28.5,00.0,38.5,31.6,26.5,0000.0,0011.32,0005.74,0004.88
2022-08-10 11:59:00,,0833.7,5.00,0.00,29.7,28.5,00.0,38.6,31.7,26.8,0000.0,0011.93,0005.76,0004.89
